TimeCDT,TemperatureF,Dew PointF,Humidity,Sea Level PressureIn,VisibilityMPH,Wind Direction,Wind SpeedMPH,Gust SpeedMPH,PrecipitationIn,Events,Conditions,WindDirDegrees,DateUTC
12:56 AM,75.0,73.9,96,29.76,9.0,Calm,Calm,-,0.00,Rain,Light Rain,0,2013-09-22 05:56:00
1:29 AM,75.2,73.4,94,29.75,10.0,SSW,5.8,-,0.00,Rain,Light Rain,210,2013-09-22 06:29:00
1:40 AM,75.2,73.4,94,29.75,3.0,Calm,Calm,-,0.04,Rain,Heavy Rain,0,2013-09-22 06:40:00
1:54 AM,73.4,71.6,94,29.75,10.0,Calm,Calm,-,0.04,Rain,Light Rain,0,2013-09-22 06:54:00
1:56 AM,73.9,72.0,93,29.75,10.0,Calm,Calm,-,0.04,Rain,Light Rain,0,2013-09-22 06:56:00
2:05 AM,73.4,73.4,100,29.75,3.0,NW,4.6,-,0.04,Rain,Heavy Rain,320,2013-09-22 07:05:00
2:11 AM,73.4,71.6,94,29.74,1.8,NW,6.9,-,0.11,Rain,Heavy Rain,320,2013-09-22 07:11:00
2:19 AM,73.4,71.6,94,29.74,3.0,NW,6.9,-,0.13,Rain,Rain,320,2013-09-22 07:19:00
2:25 AM,73.4,71.6,94,29.74,7.0,NNW,6.9,-,0.13,Rain,Light Rain,340,2013-09-22 07:25:00
2:56 AM,72.0,71.1,97,29.75,10.0,North,4.6,-,0.13,Rain,Light Rain,350,2013-09-22 07:56:00
3:56 AM,71.1,70.0,96,29.74,10.0,North,4.6,-,0.00,Rain,Light Rain,360,2013-09-22 08:56:00
4:56 AM,71.1,70.0,96,29.74,10.0,North,10.4,-,0.00,,Overcast,10,2013-09-22 09:56:00
5:56 AM,70.0,69.1,97,29.75,10.0,NNE,8.1,-,N/A,,Overcast,20,2013-09-22 10:56:00
6:38 AM,69.8,69.8,100,29.74,10.0,NNE,9.2,-,N/A,,Mostly Cloudy,20,2013-09-22 11:38:00
6:56 AM,70.0,69.1,97,29.75,10.0,North,6.9,-,N/A,,Overcast,10,2013-09-22 11:56:00
7:38 AM,69.8,69.8,100,29.76,10.0,NNE,8.1,-,N/A,,Overcast,30,2013-09-22 12:38:00
7:45 AM,69.8,69.8,100,29.76,10.0,NNE,9.2,-,N/A,,Overcast,30,2013-09-22 12:45:00
7:56 AM,70.0,69.1,97,29.77,10.0,NNE,8.1,-,N/A,,Overcast,30,2013-09-22 12:56:00
8:53 AM,71.6,69.8,94,29.77,10.0,NE,10.4,-,N/A,,Overcast,40,2013-09-22 13:53:00
8:56 AM,71.1,69.1,93,29.78,10.0,NE,8.1,-,N/A,,Overcast,50,2013-09-22 13:56:00
9:32 AM,71.6,69.8,94,29.79,10.0,NE,9.2,-,N/A,,Overcast,40,2013-09-22 14:32:00
9:56 AM,73.0,69.1,87,29.80,10.0,NNE,11.5,-,N/A,,Overcast,20,2013-09-22 14:56:00
10:56 AM,73.9,70.0,87,29.80,10.0,NNE,6.9,-,N/A,,Overcast,20,2013-09-22 15:56:00
11:14 AM,73.4,69.8,88,29.80,10.0,NE,9.2,-,N/A,,Overcast,40,2013-09-22 16:14:00
11:36 AM,73.4,71.6,94,29.80,2.0,NE,5.8,-,N/A,Rain,Rain,50,2013-09-22 16:36:00
11:43 AM,73.4,71.6,94,29.80,1.2,NE,5.8,-,N/A,Rain,Heavy Rain,50,2013-09-22 16:43:00
11:53 AM,71.6,71.6,100,29.80,1.0,NE,9.2,-,N/A,Rain,Heavy Rain,50,2013-09-22 16:53:00
11:56 AM,72.0,71.1,97,29.81,1.0,NE,8.1,-,N/A,Rain,Heavy Rain,40,2013-09-22 16:56:00
12:24 PM,73.4,71.6,94,29.80,2.0,NE,6.9,-,0.10,Rain,Rain,50,2013-09-22 17:24:00
12:38 PM,73.4,71.6,94,29.79,3.0,NNE,8.1,-,0.10,Rain,Light Rain,30,2013-09-22 17:38:00
12:56 PM,73.9,72.0,93,29.79,7.0,NNE,10.4,-,0.10,,Overcast,30,2013-09-22 17:56:00
1:45 PM,75.2,73.4,94,29.77,10.0,NNE,8.1,-,N/A,,Overcast,20,2013-09-22 18:45:00
1:56 PM,75.9,73.0,91,29.78,10.0,NNE,10.4,-,N/A,,Overcast,30,2013-09-22 18:56:00
2:56 PM,78.1,73.0,84,29.75,10.0,NNE,10.4,-,N/A,,Overcast,30,2013-09-22 19:56:00
3:38 PM,77.0,73.4,89,29.73,10.0,NNE,9.2,-,N/A,,Overcast,30,2013-09-22 20:38:00
3:56 PM,77.0,73.0,88,29.74,10.0,NE,6.9,-,N/A,,Overcast,50,2013-09-22 20:56:00
4:56 PM,77.0,73.0,88,29.75,10.0,NNE,9.2,-,N/A,,Overcast,30,2013-09-22 21:56:00
5:39 PM,78.8,73.4,83,29.75,10.0,North,6.9,-,N/A,,Mostly Cloudy,360,2013-09-22 22:39:00
5:56 PM,78.1,72.0,81,29.76,10.0,North,6.9,-,N/A,,Mostly Cloudy,10,2013-09-22 22:56:00
6:28 PM,77.0,73.4,89,29.76,10.0,NNE,8.1,-,N/A,,Overcast,20,2013-09-22 23:28:00
6:56 PM,75.9,73.0,91,29.77,10.0,NNE,8.1,-,N/A,,Overcast,30,2013-09-22 23:56:00
7:21 PM,75.2,71.6,89,29.76,10.0,NNE,10.4,-,N/A,,Overcast,20,2013-09-23 00:21:00
7:56 PM,75.0,70.0,84,29.77,10.0,NNE,10.4,-,N/A,,Overcast,30,2013-09-23 00:56:00
8:30 PM,75.2,71.6,89,29.78,10.0,North,5.8,-,N/A,,Overcast,360,2013-09-23 01:30:00
8:56 PM,73.9,71.1,91,29.80,10.0,NE,3.5,-,N/A,,Overcast,50,2013-09-23 01:56:00
9:56 PM,73.9,71.1,91,29.80,10.0,North,5.8,-,N/A,,Partly Cloudy,10,2013-09-23 02:56:00
10:56 PM,73.0,71.1,93,29.79,10.0,North,8.1,-,N/A,,Clear,10,2013-09-23 03:56:00
11:56 PM,73.0,71.1,93,29.78,10.0,North,8.1,-,N/A,,Clear,360,2013-09-23 04:56:00